Regional Weather Roundup
Issued by NWS

Home | Current Version | Previous Version | Graphics & Text | Print | Product List | Glossary On
Versions: 1 2 3 4 5 6 7 8 9 10 11 12 13 14 15 16 17 18 19 20 21 22 23 24 25 26 27 28 29 30 31 32 33 34 35 36 37 38 39 40 41 42 43 44 45 46 47 48 49 50
000
ASUS43 KLSX 242007
RWRMO

WEATHER SUMMARY FOR MISSOURI
NATIONAL WEATHER SERVICE SPRINGFIELD MO
200 PM CST MON NOV 24 2014

NOTE: "FAIR" INDICATES FEW OR NO CLOUDS BELOW 12,000 FEET WITH NO
       SIGNIFICANT WEATHER AND/OR OBSTRUCTIONS TO VISIBILITY.
       CURRENT SKY AND/OR WEATHER CONDITIONS ARE NOT AVAILABLE FOR
       CHILLICOTHE AND FARMINGTON.

MOZ001>031-035>038-043-044-053-054-242100-
...NORTHERN AND WESTERN MISSOURI...

CITY           SKY/WX    TMP DP  RH WIND       PRES   REMARKS
KANSAS CTY INT CLOUDY    36  24  62 W15G24    29.81R WCI  27
KANSAS C DTWN  CLOUDY    38  23  55 W15G25    29.83R WCI  29
LEE`S SUMMIT   CLOUDY    37  23  56 W18G25    29.82R WCI  27
ST JOSEPH      CLOUDY    36  23  59 NW23G31   29.81R WCI  24
CHILLICOTHE      N/A     35  23  61 W12G23    29.79R WCI  27
KIRKSVILLE     CLOUDY    32  23  69 W17G28    29.72R WCI  21

$$
MOZ066>068-077>081-088>096-101>105-242100-
...SOUTHWEST MISSOURI...

CITY           SKY/WX    TMP DP  RH WIND       PRES   REMARKS
SPRINGFIELD    PTSUNNY   48  27  44 W22G32    29.82R
JOPLIN         MOSUNNY   50  27  40 W22G31    29.85S

$$
MOZ032>034-039>042-045>050-055>058-069>072-242100-
...CENTRAL MISSOURI...

CITY           SKY/WX    TMP DP  RH WIND       PRES   REMARKS
COLUMBIA       CLOUDY    39  27  62 W13G23    29.76R
JEFFERSON CITY CLOUDY    41  25  53 W15       29.78R
ROLLA          CLOUDY    41  26  55 W15G24    29.75R
SEDALIA        CLOUDY    40  27  59 W20G30    29.79R
WHITEMAN AFB   CLOUDY    39  25  56 W20G28    29.79R WCI  30
WARRENSBURG    CLOUDY    37  25  60 W14G23    29.81R WCI  29
OSAGE BEACH    CLOUDY    45  27  49 W15G24    29.78R

$$
MOZ051-052-059>065-242100-
...EAST CENTRAL MISSOURI...

CITY           SKY/WX    TMP DP  RH WIND       PRES   REMARKS
ST LOUIS INTL  CLOUDY    41  27  57 W23G31    29.75R
SPIRIT OF STL  CLOUDY    39  28  64 W13G24    29.75R
ST CHARLES     CLOUDY    39  27  62 W25G31    29.74R WCI  28

$$
MOZ072>076-082>087-097>100-106>115-242100-
...SOUTH CENTRAL AND SOUTHEAST MISSOURI...

CITY           SKY/WX    TMP DP  RH WIND       PRES   REMARKS
CAPE GIRARDEAU MOSUNNY   51  34  52 W21       29.78R
FARMINGTON     PTSUNNY   46  27  46 SW16G24   29.77R
POPLAR BLUFF   SUNNY     53  27  36 W16G28    29.79R
WEST PLAINS    MOSUNNY   51  27  39 W14G26    29.80R

$$



USA.gov is the U.S. government's official web portal to all federal, state and local government web resources and services.